| time (UTC) | temp C | wind direction | speed KPH | gust KPH | rain 1hr cm | rain 24hr cm | rain mn cm | humidity % | barometer mb |
| 20260502180516 | 11 | 173 | 1.6 | 6.4 | 0.00 | 0.08 | 0.08 | 81 | 1011.7 |
| 20260502170516 | 11 | 160 | 1.6 | 6.4 | 0.00 | 0.08 | 0.08 | 82 | 1011.9 |
| 20260502163516 | 11 | 154 | 1.6 | 8.0 | 0.00 | 0.08 | 0.08 | 82 | 1012.1 |
| 20260502162516 | 11 | 168 | 1.6 | 11.3 | 0.00 | 0.08 | 0.08 | 81 | 1012.2 |
| 20260502161516 | 11 | 148 | 1.6 | 3.2 | 0.00 | 0.08 | 0.08 | 81 | 1012.2 |
| 20260502160616 | 11 | 147 | 0.0 | 4.8 | 0.00 | 0.08 | 0.08 | 80 | 1012.3 |
| 20260502151516 | 10 | 163 | 1.6 | 3.2 | 0.00 | 0.08 | 0.08 | 82 | 1012.9 |
| 20260502150516 | 10 | 162 | 1.6 | 6.4 | 0.00 | 0.08 | 0.08 | 83 | 1013.0 |
| 20260502130515 | 8 | 196 | 1.6 | 3.2 | 0.03 | 0.08 | 0.08 | 95 | 1012.8 |
| 20260502123515 | 7 | 192 | 1.6 | 3.2 | 0.08 | 0.08 | 0.08 | 94 | 1012.8 |
| 20260502122515 | 7 | 192 | 0.0 | 1.6 | 0.08 | 0.08 | 0.08 | 94 | 1013.0 |
| 20260502121515 | 7 | 193 | 1.6 | 3.2 | 0.08 | 0.08 | 0.08 | 94 | 1013.1 |
| 20260502120515 | 7 | 193 | 0.0 | 1.6 | 0.05 | 0.05 | 0.05 | 93 | 1013.6 |
| 20260502115515 | 7 | 193 | 0.0 | 3.2 | 0.05 | 0.05 | 0.05 | 93 | 1013.8 |
| 20260502114515 | 7 | 193 | 0.0 | 1.6 | 0.03 | 0.03 | 0.03 | 93 | 1013.7 |
| 20260502113515 | 7 | 192 | 0.0 | 3.2 | 0.00 | 0.00 | 0.00 | 93 | 1013.7 |
| 20260502112515 | 7 | 0.0 | 0.0 | 0.00 | 0.00 | 0.00 | 93 | 1013.8 | |
| 20260502111516 | 7 | 0.0 | 1.6 | 0.00 | 0.00 | 0.00 | 93 | 1013.5 | |
| 20260502110515 | 7 | 191 | 0.0 | 1.6 | 0.00 | 0.00 | 0.00 | 92 | 1013.5 |
| 20260502105515 | 7 | 191 | 1.6 | 3.2 | 0.00 | 0.00 | 0.00 | 92 | 1013.4 |
| 20260502104515 | 7 | 191 | 0.0 | 1.6 | 0.00 | 0.00 | 0.00 | 91 | 1012.9 |
| 20260502103515 | 7 | 0.0 | 0.0 | 0.00 | 0.00 | 0.00 | 91 | 1012.8 | |
| 20260502102515 | 7 | 0.0 | 0.0 | 0.00 | 0.00 | 0.00 | 91 | 1012.7 | |
| 20260502101515 | 7 | 0.0 | 0.0 | 0.00 | 0.00 | 0.00 | 91 | 1012.7 | |
| 20260502100515 | 7 | 0.0 | 1.6 | 0.00 | 0.00 | 0.00 | 90 | 1012.8 | |
| 20260502091516 | 7 | 192 | 0.0 | 1.6 | 0.00 | 0.00 | 0.00 | 89 | 1012.6 |
| 20260502090515 | 7 | 192 | 0.0 | 1.6 | 0.00 | 0.00 | 0.00 | 88 | 1012.4 |
| 20260502071515 | 8 | 178 | 1.6 | 4.8 | 0.00 | 0.00 | 0.00 | 82 | 1012.7 |
| 20260502070515 | 8 | 178 | 1.6 | 4.8 | 0.00 | 0.00 | 0.00 | 82 | 1012.6 |
| 20260502065516 | 8 | 178 | 1.6 | 4.8 | 0.00 | 0.00 | 0.00 | 82 | 1012.6 |
| 20260502064515 | 8 | 178 | 1.6 | 3.2 | 0.00 | 0.00 | 0.00 | 81 | 1012.6 |
| 20260502063621 | 8 | 178 | 0.0 | 3.2 | 0.00 | 0.00 | 0.00 | 81 | 1012.6 |
| 20260502062615 | 8 | 178 | 1.6 | 3.2 | 0.00 | 0.00 | 0.00 | 80 | 1012.7 |
| 20260502061515 | 8 | 178 | 1.6 | 4.8 | 0.00 | 0.00 | 0.00 | 80 | 1012.8 |
| 20260502060516 | 8 | 174 | 3.2 | 8.0 | 0.00 | 0.00 | 0.00 | 79 | 1012.8 |
| 20260502055617 | 8 | 205 | 3.2 | 8.0 | 0.00 | 0.00 | 0.00 | 79 | 1012.9 |
| 20260502054617 | 8 | 158 | 3.2 | 6.4 | 0.00 | 0.00 | 0.00 | 79 | 1013.0 |
| 20260502053517 | 8 | 163 | 3.2 | 6.4 | 0.00 | 0.00 | 0.00 | 78 | 1013.0 |
| 20260502052517 | 9 | 167 | 3.2 | 8.0 | 0.00 | 0.00 | 0.00 | 77 | 1013.0 |
| 20260502051517 | 9 | 172 | 1.6 | 8.0 | 0.00 | 0.00 | 0.00 | 77 | 1013.1 |
| 20260502050518 | 9 | 172 | 1.6 | 4.8 | 0.00 | 0.00 | 0.00 | 77 | 1013.2 |
| 20260502045517 | 9 | 172 | 1.6 | 4.8 | 0.00 | 0.00 | 0.00 | 77 | 1013.2 |
| 20260502044517 | 9 | 171 | 1.6 | 3.2 | 0.00 | 0.00 | 0.00 | 77 | 1013.2 |
| 20260502043517 | 9 | 171 | 1.6 | 6.4 | 0.00 | 0.00 | 0.00 | 76 | 1013.3 |
| 20260502042517 | 9 | 171 | 1.6 | 3.2 | 0.00 | 0.00 | 0.00 | 75 | 1013.2 |
| 20260502041516 | 9 | 171 | 1.6 | 6.4 | 0.00 | 0.00 | 0.00 | 75 | 1013.1 |
| 20260502040517 | 9 | 162 | 1.6 | 3.2 | 0.00 | 0.00 | 0.00 | 75 | 1013.1 |
| 20260502035516 | 9 | 161 | 0.0 | 3.2 | 0.00 | 0.00 | 0.00 | 74 | 1013.1 |
| 20260502034617 | 9 | 161 | 1.6 | 3.2 | 0.00 | 0.00 | 0.00 | 74 | 1013.2 |
| 20260502033516 | 10 | 161 | 1.6 | 6.4 | 0.00 | 0.00 | 0.00 | 73 | 1013.3 |
| 20260502032516 | 10 | 161 | 1.6 | 6.4 | 0.00 | 0.00 | 0.00 | 73 | 1013.2 |
| 20260502031518 | 10 | 161 | 1.6 | 6.4 | 0.00 | 0.00 | 0.00 | 72 | 1013.0 |
| 20260502030516 | 10 | 161 | 1.6 | 6.4 | 0.00 | 0.00 | 0.00 | 71 | 1013.0 |
| 20260502025516 | 10 | 161 | 1.6 | 6.4 | 0.00 | 0.00 | 0.00 | 71 | 1013.1 |
| 20260502024616 | 10 | 161 | 1.6 | 6.4 | 0.00 | 0.00 | 0.00 | 71 | 1013.1 |
| 20260502023516 | 10 | 161 | 3.2 | 6.4 | 0.00 | 0.00 | 0.00 | 70 | 1013.1 |
| 20260502022516 | 10 | 161 | 1.6 | 3.2 | 0.00 | 0.00 | 0.00 | 69 | 1013.1 |
| 20260502021518 | 10 | 161 | 3.2 | 8.0 | 0.00 | 0.00 | 0.00 | 69 | 1013.1 |
| 20260502020516 | 10 | 159 | 1.6 | 8.0 | 0.00 | 0.00 | 0.00 | 68 | 1013.1 |
| 20260502015517 | 11 | 167 | 3.2 | 9.7 | 0.00 | 0.00 | 0.00 | 67 | 1013.1 |
| 20260502014516 | 11 | 185 | 3.2 | 6.4 | 0.00 | 0.00 | 0.00 | 66 | 1013.0 |
| 20260502013517 | 11 | 190 | 3.2 | 12.9 | 0.00 | 0.00 | 0.00 | 65 | 1012.9 |
| 20260502012517 | 11 | 187 | 3.2 | 6.4 | 0.00 | 0.00 | 0.00 | 64 | 1012.9 |
| 20260502011517 | 11 | 187 | 3.2 | 8.0 | 0.00 | 0.00 | 0.00 | 62 | 1012.7 |
| 20260502010516 | 11 | 192 | 3.2 | 4.8 | 0.00 | 0.00 | 0.00 | 60 | 1012.6 |
| 20260502005616 | 11 | 197 | 3.2 | 6.4 | 0.00 | 0.00 | 0.00 | 57 | 1012.4 |
| 20260502004516 | 12 | 205 | 3.2 | 6.4 | 0.00 | 0.00 | 0.00 | 53 | 1012.3 |
| 20260502003516 | 12 | 186 | 3.2 | 6.4 | 0.00 | 0.00 | 0.00 | 50 | 1012.1 |
| 20260502002516 | 12 | 175 | 3.2 | 4.8 | 0.00 | 0.00 | 0.00 | 49 | 1012.1 |
| 20260502001516 | 12 | 193 | 3.2 | 6.4 | 0.00 | 0.00 | 0.00 | 49 | 1011.8 |
| 20260502000516 | 13 | 185 | 3.2 | 4.8 | 0.00 | 0.00 | 0.00 | 48 | 1011.6 |
| 20260501235516 | 13 | 183 | 1.6 | 4.8 | 0.00 | 0.00 | 0.00 | 47 | 1011.5 |
| 20260501234617 | 13 | 167 | 3.2 | 6.4 | 0.00 | 0.00 | 0.00 | 46 | 1011.3 |
| 20260501233517 | 13 | 165 | 1.6 | 3.2 | 0.00 | 0.00 | 0.00 | 45 | 1011.2 |
| 20260501232516 | 14 | 0.0 | 0.0 | 0.00 | 0.00 | 0.00 | 44 | 1011.1 | |
| 20260501231517 | 15 | 0.0 | 1.6 | 0.00 | 0.00 | 0.00 | 44 | 1011.0 | |
| 20260501230516 | 15 | 164 | 0.0 | 3.2 | 0.00 | 0.00 | 0.00 | 43 | 1011.0 |
| 20260501225516 | 15 | 128 | 0.0 | 4.8 | 0.00 | 0.00 | 0.00 | 41 | 1010.9 |
| 20260501224516 | 15 | 164 | 1.6 | 8.0 | 0.00 | 0.00 | 0.00 | 40 | 1010.6 |
| 20260501223516 | 16 | 344 | 1.6 | 6.4 | 0.00 | 0.00 | 0.00 | 40 | 1010.7 |
| 20260501222516 | 16 | 16 | 1.6 | 6.4 | 0.00 | 0.00 | 0.00 | 39 | 1010.7 |
| 20260501221516 | 16 | 36 | 1.6 | 6.4 | 0.00 | 0.00 | 0.00 | 39 | 1010.7 |
| 20260501220516 | 16 | 281 | 1.6 | 4.8 | 0.00 | 0.00 | 0.00 | 40 | 1010.7 |
| 20260501215516 | 16 | 17 | 1.6 | 6.4 | 0.00 | 0.00 | 0.00 | 42 | 1010.9 |
| 20260501214516 | 16 | 183 | 1.6 | 4.8 | 0.00 | 0.00 | 0.00 | 40 | 1010.7 |
| 20260501213516 | 16 | 187 | 1.6 | 4.8 | 0.00 | 0.00 | 0.00 | 41 | 1010.8 |
| 20260501212517 | 16 | 174 | 1.6 | 9.7 | 0.00 | 0.00 | 0.00 | 40 | 1010.7 |
| 20260501211516 | 16 | 176 | 3.2 | 8.0 | 0.00 | 0.00 | 0.00 | 41 | 1010.7 |
| 20260501210516 | 16 | 73 | 1.6 | 9.7 | 0.00 | 0.00 | 0.00 | 40 | 1010.5 |
| 20260501205516 | 16 | 25 | 3.2 | 11.3 | 0.00 | 0.00 | 0.00 | 41 | 1010.6 |
| 20260501204516 | 15 | 184 | 3.2 | 8.0 | 0.00 | 0.00 | 0.00 | 41 | 1010.6 |
| 20260501203516 | 15 | 48 | 3.2 | 12.9 | 0.00 | 0.00 | 0.00 | 40 | 1010.5 |
| 20260501202516 | 15 | 21 | 1.6 | 8.0 | 0.00 | 0.00 | 0.00 | 39 | 1010.5 |
| 20260501201516 | 16 | 284 | 1.6 | 6.4 | 0.00 | 0.00 | 0.00 | 39 | 1010.7 |
| 20260501200516 | 16 | 149 | 1.6 | 8.0 | 0.00 | 0.00 | 0.00 | 39 | 1010.6 |
| 20260501195516 | 16 | 142 | 3.2 | 9.7 | 0.00 | 0.00 | 0.00 | 38 | 1010.6 |
| 20260501194616 | 16 | 37 | 3.2 | 11.3 | 0.00 | 0.00 | 0.00 | 37 | 1010.8 |
| 20260501193516 | 16 | 211 | 3.2 | 16.1 | 0.00 | 0.00 | 0.00 | 37 | 1010.8 |
| 20260501192718 | 16 | 305 | 4.8 | 12.9 | 0.00 | 0.00 | 0.00 | 36 | 1011.1 |
| 20260501191516 | 17 | 292 | 3.2 | 11.3 | 0.00 | 0.00 | 0.00 | 36 | 1011.1 |
| 20260501190515 | 17 | 15 | 3.2 | 12.9 | 0.00 | 0.00 | 0.00 | 37 | 1011.2 |
| 20260501185516 | 17 | 203 | 3.2 | 11.3 | 0.00 | 0.00 | 0.00 | 36 | 1011.4 |
| 20260501184716 | 17 | 282 | 4.8 | 12.9 | 0.00 | 0.00 | 0.00 | 37 | 1011.5 |
| 20260501183516 | 16 | 209 | 3.2 | 14.5 | 0.00 | 0.00 | 0.00 | 39 | 1011.4 |
| 20260501182616 | 16 | 19 | 3.2 | 11.3 | 0.00 | 0.00 | 0.00 | 41 | 1011.5 |
| 20260501181617 | 16 | 40 | 3.2 | 9.7 | 0.00 | 0.00 | 0.00 | 43 | 1011.4 |